| time (UTC) | temp F | wind direction | speed MPH | gust MPH | rain 1hr in | rain 24hr in | rain mn in | humidity % | barometer mb |
| 20260503022814 | 47 | 70 | 1.0 | 1.0 | 0.00 | 0.20 | 0.20 | 44 | 1021.1 |
| 20260503021811 | 48 | 61 | 0.0 | 1.0 | 0.00 | 0.20 | 0.20 | 44 | 1021.1 |
| 20260503020810 | 47 | 68 | 1.0 | 4.0 | 0.00 | 0.20 | 0.20 | 42 | 1021.1 |
| 20260503015810 | 48 | 54 | 2.0 | 2.0 | 0.00 | 0.20 | 0.20 | 44 | 1020.9 |
| 20260503014809 | 47 | 67 | 0.0 | 1.0 | 0.00 | 0.20 | 0.20 | 46 | 1021.1 |
| 20260503013804 | 46 | 75 | 0.0 | 0.0 | 0.00 | 0.20 | 0.20 | 46 | 1020.8 |
| 20260503012758 | 47 | 75 | 0.0 | 0.0 | 0.00 | 0.20 | 0.20 | 44 | 1020.8 |
| 20260503011758 | 47 | 77 | 0.0 | 0.0 | 0.00 | 0.20 | 0.20 | 44 | 1020.6 |
| 20260503010757 | 48 | 72 | 0.0 | 0.0 | 0.00 | 0.20 | 0.20 | 43 | 1020.6 |
| 20260503005757 | 48 | 71 | 0.0 | 1.0 | 0.00 | 0.20 | 0.20 | 42 | 1020.5 |
| 20260503004756 | 49 | 72 | 0.0 | 0.0 | 0.00 | 0.20 | 0.20 | 42 | 1020.5 |
| 20260503003751 | 49 | 63 | 0.0 | 2.0 | 0.00 | 0.20 | 0.20 | 44 | 1020.4 |
| 20260503002751 | 50 | 76 | 0.0 | 0.0 | 0.00 | 0.20 | 0.20 | 43 | 1020.1 |
| 20260503001750 | 50 | 43 | 2.0 | 3.0 | 0.00 | 0.20 | 0.20 | 40 | 1020.2 |
| 20260503000745 | 50 | 74 | 0.0 | 0.0 | 0.00 | 0.20 | 0.20 | 42 | 1020.1 |
| 20260502235745 | 51 | 71 | 0.0 | 0.0 | 0.00 | 0.20 | 0.20 | 42 | 1020.0 |
| 20260502234744 | 52 | 68 | 0.0 | 0.0 | 0.00 | 0.20 | 0.20 | 39 | 1019.9 |
| 20260502233743 | 52 | 69 | 0.0 | 0.0 | 0.00 | 0.20 | 0.20 | 39 | 1020.0 |
| 20260502232742 | 53 | 53 | 1.0 | 1.0 | 0.00 | 0.20 | 0.20 | 35 | 1020.2 |
| 20260502231742 | 53 | 60 | 0.0 | 2.0 | 0.00 | 0.20 | 0.20 | 35 | 1020.1 |
| 20260502230738 | 54 | 15 | 2.0 | 2.0 | 0.00 | 0.20 | 0.20 | 36 | 1019.8 |
| 20260502225738 | 54 | 354 | 3.0 | 3.0 | 0.00 | 0.20 | 0.20 | 36 | 1019.7 |
| 20260502224737 | 55 | 48 | 2.0 | 4.0 | 0.00 | 0.20 | 0.20 | 36 | 1019.8 |
| 20260502223737 | 55 | 66 | 2.0 | 4.0 | 0.00 | 0.20 | 0.20 | 34 | 1019.6 |
| 20260502222733 | 55 | 197 | 4.0 | 6.0 | 0.00 | 0.20 | 0.20 | 32 | 1019.5 |
| 20260502221731 | 55 | 37 | 2.0 | 3.0 | 0.00 | 0.20 | 0.20 | 35 | 1019.5 |
| 20260502220730 | 56 | 7 | 2.0 | 6.0 | 0.00 | 0.20 | 0.20 | 36 | 1019.2 |
| 20260502215729 | 56 | 54 | 1.0 | 4.0 | 0.00 | 0.20 | 0.20 | 34 | 1019.2 |
| 20260502214724 | 55 | 54 | 1.0 | 2.0 | 0.00 | 0.20 | 0.20 | 36 | 1019.1 |
| 20260502213724 | 56 | 60 | 1.0 | 3.0 | 0.00 | 0.20 | 0.20 | 35 | 1019.3 |
| 20260502212720 | 56 | 309 | 3.0 | 7.0 | 0.00 | 0.20 | 0.20 | 34 | 1019.1 |
| 20260502211719 | 58 | 18 | 4.0 | 4.0 | 0.00 | 0.20 | 0.20 | 33 | 1019.0 |
| 20260502210719 | 58 | 6 | 4.0 | 4.0 | 0.00 | 0.20 | 0.20 | 36 | 1018.9 |
| 20260502205714 | 60 | 317 | 3.0 | 4.0 | 0.00 | 0.20 | 0.20 | 31 | 1018.8 |
| 20260502204713 | 61 | 326 | 2.0 | 3.0 | 0.00 | 0.20 | 0.20 | 31 | 1018.7 |
| 20260502203708 | 59 | 248 | 3.0 | 8.0 | 0.00 | 0.20 | 0.20 | 31 | 1018.7 |
| 20260502202705 | 57 | 347 | 2.0 | 4.0 | 0.00 | 0.20 | 0.20 | 34 | 1018.6 |
| 20260502201701 | 58 | 54 | 1.0 | 2.0 | 0.00 | 0.20 | 0.20 | 32 | 1019.0 |
| 20260502200659 | 58 | 46 | 2.0 | 3.0 | 0.00 | 0.20 | 0.20 | 33 | 1018.9 |
| 20260502195654 | 58 | 50 | 2.0 | 3.0 | 0.00 | 0.20 | 0.20 | 32 | 1019.0 |
| 20260502194653 | 58 | 49 | 1.0 | 3.0 | 0.00 | 0.20 | 0.20 | 33 | 1019.3 |
| 20260502193652 | 58 | 55 | 2.0 | 4.0 | 0.00 | 0.20 | 0.20 | 36 | 1019.3 |
| 20260502192650 | 58 | 30 | 2.0 | 2.0 | 0.00 | 0.20 | 0.20 | 37 | 1019.3 |
| 20260502191645 | 57 | 65 | 0.0 | 1.0 | 0.00 | 0.20 | 0.20 | 39 | 1019.5 |
| 20260502190645 | 57 | 64 | 0.0 | 3.0 | 0.00 | 0.20 | 0.20 | 46 | 1019.8 |
| 20260502185643 | 57 | 62 | 1.0 | 2.0 | 0.00 | 0.20 | 0.20 | 48 | 1019.7 |
| 20260502184643 | 57 | 38 | 2.0 | 2.0 | 0.00 | 0.20 | 0.20 | 50 | 1019.8 |
| 20260502183640 | 57 | 77 | 1.0 | 3.0 | 0.00 | 0.20 | 0.20 | 45 | 1019.8 |
| 20260502182636 | 57 | 100 | 2.0 | 2.0 | 0.00 | 0.20 | 0.20 | 41 | 1019.7 |
| 20260502181635 | 57 | 156 | 2.0 | 2.0 | 0.00 | 0.20 | 0.20 | 43 | 1019.8 |
| 20260502180631 | 57 | 73 | 1.0 | 2.0 | 0.00 | 0.20 | 0.20 | 48 | 1019.8 |
| 20260502163620 | 57 | 56 | 1.0 | 2.0 | 0.00 | 0.20 | 0.20 | 53 | 1020.7 |
| 20260502162619 | 56 | 67 | 0.0 | 1.0 | 0.00 | 0.20 | 0.20 | 58 | 1020.6 |
| 20260502161620 | 55 | 92 | 1.0 | 3.0 | 0.00 | 0.20 | 0.20 | 60 | 1020.8 |
| 20260502160615 | 55 | 67 | 2.0 | 2.0 | 0.00 | 0.20 | 0.20 | 64 | 1020.9 |
| 20260502151536 | 50 | 57 | 1.0 | 2.0 | 0.00 | 0.20 | 0.20 | 83 | 1021.2 |
| 20260502150531 | 49 | 74 | 0.0 | 2.0 | 0.00 | 0.20 | 0.20 | 83 | 1021.4 |
| 20260502130514 | 47 | 4 | 2.0 | 2.0 | 0.00 | 0.20 | 0.20 | 89 | 1021.4 |
| 20260502123508 | 48 | 79 | 0.0 | 1.0 | 0.00 | 0.20 | 0.20 | 93 | 1021.1 |
| 20260502122507 | 47 | 51 | 1.0 | 1.0 | 0.00 | 0.20 | 0.20 | 95 | 1021.1 |
| 20260502121502 | 47 | 93 | 0.0 | 1.0 | 0.00 | 0.20 | 0.20 | 95 | 1020.8 |
| 20260502120501 | 47 | 75 | 0.0 | 1.0 | 0.00 | 0.20 | 0.20 | 96 | 1020.7 |
| 20260502115501 | 47 | 96 | 0.0 | 0.0 | 0.00 | 0.20 | 0.20 | 96 | 1021.1 |
| 20260502114500 | 46 | 108 | 1.0 | 2.0 | 0.00 | 0.20 | 0.20 | 96 | 1020.9 |
| 20260502113500 | 46 | 165 | 2.0 | 2.0 | 0.00 | 0.20 | 0.20 | 96 | 1020.9 |
| 20260502112456 | 46 | 95 | 1.0 | 1.0 | 0.00 | 0.20 | 0.20 | 96 | 1020.9 |
| 20260502111456 | 46 | 68 | 0.0 | 1.0 | 0.00 | 0.20 | 0.20 | 96 | 1020.9 |
| 20260502110451 | 46 | 78 | 0.0 | 0.0 | 0.00 | 0.20 | 0.20 | 96 | 1020.7 |
| 20260502105446 | 46 | 78 | 0.0 | 0.0 | 0.00 | 0.20 | 0.20 | 96 | 1020.6 |
| 20260502104446 | 46 | 78 | 0.0 | 0.0 | 0.00 | 0.20 | 0.20 | 96 | 1020.5 |
| 20260502103441 | 45 | 78 | 0.0 | 0.0 | 0.00 | 0.20 | 0.20 | 96 | 1020.3 |
| 20260502102441 | 45 | 78 | 0.0 | 0.0 | 0.00 | 0.20 | 0.20 | 96 | 1020.5 |
| 20260502101436 | 45 | 78 | 0.0 | 0.0 | 0.00 | 0.20 | 0.20 | 96 | 1020.4 |
| 20260502100433 | 45 | 78 | 0.0 | 0.0 | 0.00 | 0.20 | 0.20 | 96 | 1020.4 |
| 20260502091419 | 46 | 78 | 0.0 | 0.0 | 0.00 | 0.20 | 0.20 | 95 | 1019.8 |
| 20260502090419 | 46 | 78 | 0.0 | 0.0 | 0.07 | 0.20 | 0.20 | 95 | 1019.9 |
| 20260502071354 | 47 | 72 | 0.0 | 0.0 | 0.00 | 0.06 | 0.06 | 94 | 1020.4 |
| 20260502070350 | 47 | 73 | 0.0 | 0.0 | 0.00 | 0.06 | 0.06 | 94 | 1020.6 |
| 20260502065346 | 47 | 67 | 0.0 | 0.0 | 0.05 | 0.06 | 0.06 | 93 | 1020.7 |
| 20260502064342 | 47 | 66 | 0.0 | 0.0 | 0.00 | 0.05 | 0.05 | 93 | 1020.8 |
| 20260502063342 | 47 | 68 | 0.0 | 0.0 | 0.00 | 0.05 | 0.05 | 92 | 1021.2 |
| 20260502062337 | 47 | 61 | 0.0 | 1.0 | 0.12 | 0.05 | 0.05 | 92 | 1021.2 |
| 20260502061333 | 47 | 63 | 0.0 | 0.0 | 0.14 | 0.03 | 0.03 | 93 | 1021.4 |
| 20260502060329 | 47 | 78 | 0.0 | 0.0 | 0.00 | 0.01 | 0.01 | 92 | 1020.7 |
| 20260502055325 | 47 | 74 | 0.0 | 0.0 | 0.00 | 0.01 | 0.01 | 92 | 1020.5 |
| 20260502054322 | 47 | 74 | 0.0 | 1.0 | 0.00 | 0.01 | 0.01 | 91 | 1020.7 |
| 20260502053322 | 48 | 83 | 0.0 | 1.0 | 0.00 | 0.01 | 0.01 | 90 | 1021.1 |
| 20260502052318 | 48 | 83 | 0.0 | 0.0 | 0.00 | 0.01 | 0.01 | 89 | 1021.1 |
| 20260502051314 | 48 | 69 | 0.0 | 0.0 | 0.00 | 0.01 | 0.01 | 88 | 1020.6 |
| 20260502050312 | 49 | 69 | 0.0 | 0.0 | 0.05 | 0.01 | 0.01 | 86 | 1020.6 |
| 20260502045311 | 49 | 67 | 0.0 | 0.0 | 0.00 | 0.00 | 0.00 | 83 | 1020.7 |
| 20260502044310 | 49 | 46 | 0.0 | 0.0 | 0.00 | 0.00 | 0.00 | 81 | 1020.5 |
| 20260502043305 | 50 | 78 | 0.0 | 0.0 | 0.00 | 0.00 | 0.00 | 77 | 1020.2 |
| 20260502042305 | 50 | 78 | 0.0 | 0.0 | 0.00 | 0.00 | 0.00 | 76 | 1020.4 |
| 20260502041257 | 50 | 78 | 0.0 | 0.0 | 0.00 | 0.00 | 0.00 | 77 | 1020.3 |
| 20260502040256 | 49 | 77 | 0.0 | 0.0 | 0.00 | 0.00 | 0.00 | 75 | 1020.3 |
| 20260502035255 | 49 | 77 | 0.0 | 0.0 | 0.00 | 0.00 | 0.00 | 75 | 1020.6 |
| 20260502034251 | 49 | 77 | 0.0 | 0.0 | 0.00 | 0.00 | 0.00 | 77 | 1020.4 |
| 20260502033252 | 50 | 77 | 0.0 | 0.0 | 0.00 | 0.00 | 0.00 | 75 | 1020.7 |
| 20260502032250 | 50 | 76 | 0.0 | 0.0 | 0.00 | 0.00 | 0.00 | 74 | 1020.4 |
| 20260502031246 | 50 | 76 | 0.0 | 1.0 | 0.00 | 0.00 | 0.00 | 71 | 1020.2 |
| 20260502030242 | 51 | 76 | 0.0 | 0.0 | 0.00 | 0.00 | 0.00 | 67 | 1020.4 |
| 20260502025237 | 51 | 76 | 0.0 | 0.0 | 0.00 | 0.00 | 0.00 | 63 | 1020.6 |
| 20260502024232 | 51 | 76 | 0.0 | 0.0 | 0.00 | 0.00 | 0.00 | 63 | 1020.6 |
| 20260502023227 | 51 | 76 | 0.0 | 0.0 | 0.00 | 0.00 | 0.00 | 64 | 1020.5 |